RH
3 2 3 3 3 3 3 3 3 4 5 6 6 6 5 6 7 9 12 13 13 16 21 29 37 40 39 38 39 42 46 53 60 66 70 71 70 67 64 58 55 53 51 51 52 52 51 50 49 49 48 49 50 51 53 53 54 55 57 56 54 52 54 57 60 61 62 64 67 68 66 66 67 67
3 3 3 3 3 3 3 3 3 3 4 4 6 6 5 6 6 7 9 11 12 13 15 18 24 31 35 34 35 37 41 48 56 61 67 73 75 74 70 64 59 55 53 52 52 51 52 51 51 50 49 50 50 51 52 52 53 53 53 53 51 49 50 54 58 60 60 60 64 67 68 69 69 68
2 2 2 2 2 3 3 3 3 3 4 4 4 5 6 6 6 6 8 9 11 12 13 14 16 19 24 26 30 34 37 42 48 52 55 63 71 75 75 71 65 60 57 56 54 54 53 52 51 51 50 50 51 52 52 52 53 53 53 52 50 49 48 50 54 57 58 58 60 64 66 68 69 69
2 2 2 2 2 2 2 3 3 3 3 4 4 4 5 6 6 6 6 7 9 10 11 13 14 14 15 17 21 28 34 38 40 44 46 49 57 66 72 75 73 68 64 60 59 58 56 55 53 52 51 51 51 52 53 53 53 52 52 52 51 51 50 51 52 53 55 56 57 60 62 64 64 67
2 2 2 2 2 2 3 3 3 3 3 3 3 4 4 4 5 5 5 6 7 9 10 11 12 13 13 14 14 18 26 33 36 38 41 43 47 54 61 68 72 72 70 67 64 62 60 59 57 55 54 53 52 52 53 53 53 52 52 52 51 52 52 52 52 52 53 54 54 55 58 59 59 61
2 2 2 2 2 2 2 3 3 3 3 3 3 3 3 4 4 5 5 5 6 7 9 10 11 12 13 14 14 14 18 24 28 31 35 39 43 47 52 58 63 67 68 68 68 67 66 64 62 60 57 55 53 53 52 52 52 53 52 51 51 50 51 52 52 52 52 52 52 53 55 56 56 56
2 2 2 2 3 2 2 3 3 3 3 3 3 3 3 3 4 4 4 5 5 6 6 8 10 11 12 13 14 15 16 18 20 22 24 29 34 39 45 50 55 59 62 63 63 66 69 70 69 66 62 59 56 54 53 52 51 52 52 52 51 50 50 51 52 52 53 52 52 52 52 53 54 54
2 2 2 2 2 2 2 2 2 3 3 3 3 3 3 3 3 4 4 4 5 5 6 6 7 9 11 12 13 14 15 16 18 18 18 19 23 29 35 40 46 50 54 56 56 57 61 67 71 71 68 65 61 58 56 54 54 54 53 53 52 51 50 51 51 52 53 53 53 52 52 52 52 52
2 2 2 2 2 2 2 3 2 3 3 3 3 3 3 3 3 4 4 4 4 4 5 5 6 7 8 10 12 13 14 15 16 17 18 17 16 18 23 29 35 41 45 48 48 47 48 52 60 67 70 70 67 64 61 59 57 57 56 55 53 52 51 51 52 52 52 52 52 52 53 52 52 52
2 2 2 2 2 2 2 2 3 3 3 3 3 3 3 3 3 3 3 3 4 4 4 5 5 6 7 7 9 11 12 14 14 16 16 17 16 15 16 18 22 27 32 36 39 40 39 40 44 51 59 65 67 67 65 64 62 60 59 58 57 56 54 53 53 52 52 52 52 52 52 51 51 51
2 2 2 2 2 2 2 2 2 3 3 3 3 3 3 3 3 3 3 3 3 3 4 4 4 5 6 6 7 8 9 11 12 13 14 15 15 15 15 15 16 17 19 23 26 30 32 33 35 37 42 48 53 57 60 61 61 61 60 60 59 58 57 56 56 55 54 53 52 51 51 51 51 50
2 2 2 2 2 2 2 2 2 3 3 3 3 3 3 3 3 3 3 3 3 3 3 4 4 4 5 5 6 6 7 8 10 11 13 14 14 14 14 14 14 15 15 16 17 19 21 24 27 29 32 34 37 41 45 48 51 53 56 58 59 58 57 56 56 57 57 56 54 53 52 51 51 51
2 2 2 2 2 2 2 2 2 2 3 2 3 3 3 3 3 3 3 3 3 3 3 3 4 4 4 5 5 5 6 7 8 9 11 13 13 13 13 12 12 12 13 14 14 15 16 16 17 19 23 26 28 30 33 36 39 42 45 49 53 54 55 54 54 55 55 56 56 55 54 54 53 52
2 2 2 2 2 2 2 2 2 2 3 2 3 3 3 3 3 3 3 3 3 3 3 3 4 4 4 4 5 5 6 6 7 7 9 11 12 12 12 12 12 11 11 12 12 13 14 15 15 14 15 17 18 20 23 26 30 33 36 40 43 45 47 48 50 52 52 52 53 53 53 53 53 53
2 2 2 2 2 2 2 2 2 2 2 3 3 3 3 3 3 3 3 3 3 3 3 3 3 4 4 4 5 5 5 6 6 7 7 8 10 11 12 12 12 11 11 12 12 12 12 13 14 14 14 14 14 14 15 16 18 22 25 29 34 37 39 40 42 44 46 47 47 47 48 48 49 50
2 2 2 2 2 2 2 2 2 2 3 3 3 3 3 3 3 3 3 3 3 3 3 3 4 4 4 4 4 5 5 5 6 7 7 7 8 9 10 11 11 11 11 11 11 11 11 11 11 12 12 13 13 13 13 13 13 13 15 17 20 24 28 32 34 36 38 39 39 39 40 41 42 44
3 2 2 3 2 2 2 2 2 2 3 3 3 3 3 3 3 3 3 3 3 3 3 3 3 4 4 4 4 4 5 5 5 5 6 7 7 7 9 10 11 11 11 11 11 10 10 11 10 10 10 10 11 11 11 12 12 12 13 13 13 14 16 18 21 24 27 29 31 32 33 33 35 36
3 3 3 3 3 3 2 2 2 2 2 3 3 3 3 3 3 3 3 3 3 3 3 3 3 4 4 4 4 4 4 4 4 5 5 5 6 6 7 8 9 9 9 10 10 10 10 10 10 10 10 10 10 10 10 10 10 10 10 11 12 13 13 13 14 15 16 18 20 22 23 25 27 28
3 3 3 3 2 3 3 2 2 2 2 3 3 3 3 3 3 3 3 3 3 3 3 3 3 4 4 4 4 4 4 4 4 4 4 5 5 5 5 6 6 7 8 8 9 9 9 9 9 10 10 10 10 9 9 9 9 9 9 9 9 10 11 12 13 13 14 14 14 15 15 16 17 19
3 3 3 3 3 3 3 2 3 2 2 2 3 3 3 3 3 3 3 3 3 3 3 3 3 3 3 4 4 4 4 4 4 4 4 4 4 5 5 5 6 6 7 8 8 9 9 9 9 9 9 9 9 9 9 9 9 9 9 9 9 9 9 10 10 11 12 13 14 15 15 15 15 15
3 3 3 3 3 3 3 3 3 3 3 3 3 3 3 3 3 3 3 3 3 3 3 3 3 3 3 3 4 4 4 4 4 4 4 4 4 5 5 5 6 6 6 7 7 8 8 8 9 9 8 8 8 8 8 8 8 8 9 9 9 9 9 9 9 10 10 11 12 12 13 14 15 15
3 3 3 3 3 3 3 3 3 3 3 3 3 3 3 3 3 3 3 3 3 3 3 3 3 3 3 3 3 4 4 4 4 4 4 4 4 4 5 5 5 5 6 6 6 7 7 8 8 8 8 8 8 7 7 7 7 7 8 8 8 8 8 9 9 9 10 10 10 11 11 11 12 13
4 4 3 3 3 3 3 3 3 3 3 3 3 3 3 3 3 3 3 3 3 3 3 3 3 3 3 3 3 3 3 3 4 4 4 4 4 4 4 4 5 5 5 5 5 5 6 6 7 7 7 7 7 7 7 7 7 7 7 7 7 7 7 7 8 8 9 9 9 10 10 10 10 11
4 4 4 4 4 4 4 3 3 3 3 3 3 3 3 3 3 3 2 3 3 3 3 3 3 3 3 3 3 4 4 4 4 4 4 4 4 4 4 4 4 4 5 4 4 5 5 5 5 5 6 6 6 7 7 6 6 6 6 6 6 7 7 6 7 7 7 8 9 9 9 10 9 10
4 4 4 4 4 4 4 4 4 4 4 4 4 3 3 3 3 2 2 2 2 2 3 3 3 3 3 3 3 3 3 4 3 4 4 4 4 4 4 4 4 4 4 4 4 4 4 4 5 5 5 5 5 6 6 6 6 6 6 6 6 6 6 6 6 7 7 7 8 8 9 9 9 9
5 5 5 5 5 5 4 4 4 4 4 4 4 4 3 3 3 3 2 3 3 3 3 3 3 3 3 3 3 3 3 3 3 3 3 3 3 3 3 4 4 4 4 4 4 4 4 4 4 4 5 5 5 5 5 5 5 5 5 6 6 5 6 6 6 6 6 6 7 7 8 9 9 10
5 5 5 4 5 5 5 5 5 4 5 5 5 4 4 3 3 3 3 3 3 3 3 3 3 3 3 3 3 3 3 3 3 3 3 3 3 3 3 4 4 4 4 4 4 4 4 4 5 5 5 5 5 5 5 5 5 6 5 6 6 6 6 6 6 6 6 6 6 6 7 8 8 9
4 4 4 4 4 4 4 4 5 5 5 5 5 4 4 4 4 4 4 4 4 4 4 4 3 3 3 3 3 3 3 3 3 3 3 3 4 4 4 4 4 4 4 4 4 4 4 4 4 4 4 5 5 5 5 5 5 5 5 5 5 5 5 5 6 6 6 6 6 6 6 7 7 8
4 4 4 4 4 4 4 4 4 4 4 5 5 5 5 4 4 4 4 4 4 4 4 4 4 4 4 3 3 3 3 4 3 3 3 4 4 4 4 4 4 4 4 4 4 4 4 4 4 4 4 4 4 4 4 5 5 5 5 5 5 5 5 5 5 5 5 5 5 5 6 6 6 7
4 4 4 4 4 4 4 4 4 4 4 4 4 4 5 4 4 4 4 4 4 4 4 4 4 4 4 4 4 4 4 4 4 3 3 3 4 4 4 4 4 4 4 4 4 4 4 4 4 4 3 3 3 3 3 3 4 4 4 4 4 4 4 5 5 5 5 5 5 5 5 5 5 6
5 4 4 4 4 4 4 4 4 4 4 4 4 4 4 4 4 4 4 4 4 4 4 4 4 4 5 4 4 4 4 4 4 4 4 3 3 4 4 3 4 4 4 4 4 4 4 4 3 3 3 3 3 3 3 3 3 3 3 3 3 3 3 3 4 4 4 4 4 4 4 4 5 5
5 5 5 5 4 4 4 4 4 4 4 4 4 4 4 4 4 4 4 4 4 4 4 4 4 5 5 5 5 5 5 5 5 4 4 4 4 4 4 4 4 4 4 4 4 4 3 4 4 4 4 4 3 3 3 3 3 3 3 3 3 3 3 3 3 3 3 3 3 3 4 4 4 4
5 5 4 5 5 4 4 4 4 4 4 4 4 4 4 4 4 4 4 4 4 4 4 4 4 4 5 5 5 5 5 5 6 5 5 5 5 5 5 5 5 4 4 4 4 4 4 4 4 4 4 4 4 4 3 4 4 3 3 3 3 3 3 3 3 3 3 3 3 3 3 3 3 3
5 5 5 5 5 5 5 5 5 4 4 4 4 4 4 4 4 4 4 4 4 4 4 4 4 4 4 4 4 5 5 5 5 5 5 5 5 5 5 5 5 5 5 5 5 4 4 4 4 4 4 4 4 4 3 4 4 3 3 3 3 3 3 3 3 3 3 3 3 3 3 3 3 3
5 5 5 5 5 5 5 5 5 5 4 4 4 4 4 4 4 4 4 4 4 4 4 4 4 4 4 5 4 4 5 5 5 5 5 5 5 5 5 5 5 5 5 5 5 5 5 5 5 5 5 5 4 4 4 4 4 4 3 3 3 3 3 3 3 3 3 3 3 3 3 3 3 3
6 6 6 5 5 5 5 5 5 5 5 5 5 4 5 4 4 4 4 4 4 4 4 4 5 5 5 5 5 5 5 5 5 5 5 5 5 5 5 5 5 5 5 5 5 5 5 5 5 5 5 5 5 5 5 5 4 4 4 4 4 4 4 4 4 4 4 4 3 3 3 3 3 3
8 8 7 7 6 6 6 6 6 6 6 5 5 5 5 5 5 5 5 4 4 4 4 4 4 4 5 4 5 5 5 5 5 5 5 5 5 5 5 5 5 5 5 5 5 5 5 5 5 5 5 5 5 5 5 5 5 5 5 5 5 4 4 4 4 4 4 4 4 4 4 4 4 3
10 10 9 9 9 9 8 8 7 7 7 6 6 6 6 6 6 5 5 5 5 5 5 5 5 5 5 5 5 5 5 5 5 5 5 5 5 5 5 5 5 5 5 5 5 5 5 5 5 5 5 5 4 4 4 4 4 4 4 4 4 4 4 4 5 5 5 5 5 5 5 5 4 4
11 11 10 10 10 10 10 10 9 9 9 8 7 7 7 6 6 6 6 6 6 6 5 5 5 5 5 5 5 5 5 5 5 5 5 5 5 5 5 5 5 5 5 5 5 5 5 5 5 5 5 5 5 5 5 5 4 4 4 4 4 4 4 4 4 4 4 5 5 5 5 5 5 5
11 11 12 12 12 12 12 12 11 11 11 10 10 9 9 8 8 8 7 7 7 6 6 6 6 6 6 6 6 6 6 6 5 5 5 5 5 5 5 5 5 5 5 5 5 5 5 5 5 5 5 5 5 5 5 5 5 4 4 4 4 4 4 4 4 4 4 4 4 4 4 5 5 4
15 15 14 14 14 14 14 14 13 13 12 12 12 11 11 10 10 9 9 9 8 8 8 7 7 7 6 6 6 6 6 6 6 6 6 6 5 6 5 5 5 5 5 5 5 5 5 5 5 5 5 5 5 5 5 5 5 4 5 5 5 5 4 4 4 4 4 4 4 4 4 4 4 4
18 18 18 19 18 18 18 18 17 17 16 15 14 14 13 12 12 11 11 11 10 10 10 9 9 9 8 8 8 7 7 7 6 6 6 6 6 6 6 5 6 5 5 6 5 5 6 5 5 5 5 5 5 5 5 5 4 4 5 5 5 5 5 4 4 4 4 4 4 4 4 4 4 4
21 22 23 23 23 23 22 22 21 20 19 18 18 17 16 16 15 15 15 14 14 13 13 12 12 12 11 11 10 10 9 9 9 8 8 7 7 7 6 6 6 6 5 5 5 5 5 5 5 5 5 5 5 5 5 5 5 5 5 5 5 5 4 4 4 4 4 4 4 4 4 4 4 4
25 26 26 26 26 26 26 25 24 23 23 22 22 21 20 20 20 20 20 19 19 19 18 17 17 16 15 14 14 13 13 13 12 11 11 10 10 9 9 8 8 7 7 6 6 5 5 5 5 5 4 5 5 5 4 4 4 4 5 5 5 5 4 4 4 4 4 4 4 4 4 4 4 4
30 31 32 33 33 33 31 30 29 28 28 27 26 25 25 25 25 24 24 24 24 24 23 22 22 21 20 19 18 17 17 16 15 15 14 13 13 12 11 11 10 9 9 9 8 7 7 6 6 5 5 5 5 4 4 4 4 4 4 4 4 4 4 4 4 4 4 4 4 3 4 4 4 4
Wind_Speed
105 108 111 115 118 118 119 119 120 123 126 132 136 138 136 136 139 144 149 152 152 153 155 156 157 158 158 156 154 151 148 144 142 140 138 137 137 136 136 134 131 129 127 126 124 123 122 122 121 119 118 117 117 116 116 116 116 115 115 115 115 113 111 110 109 108 108 107 106 105 104 103 102 101
103 106 109 113 115 116 116 115 116 117 120 124 129 133 134 134 135 138 143 148 150 152 154 156 157 160 160 159 156 153 150 148 147 145 144 142 142 141 140 139 137 134 131 129 127 126 125 124 123 122 121 120 119 118 118 118 118 118 117 117 117 115 113 112 111 111 110 109 107 107 106 105 105 103
100 103 106 109 111 112 113 113 113 115 118 120 123 127 131 132 133 135 138 142 147 150 152 154 156 159 160 159 157 155 153 152 151 151 149 147 145 144 144 143 141 139 136 133 131 129 128 127 126 125 124 122 121 120 120 120 120 120 119 119 118 117 116 114 113 113 112 111 110 109 108 108 107 106
95 99 102 105 107 109 110 111 112 114 117 118 119 122 126 129 131 133 134 137 141 145 149 152 155 157 158 158 156 154 154 155 154 154 153 151 149 147 146 145 144 143 140 138 135 133 132 131 130 128 127 126 124 123 123 122 122 122 121 121 120 119 118 117 116 115 114 114 113 111 111 111 110 108
91 94 97 100 103 106 108 110 111 113 115 116 117 119 121 125 128 130 132 133 136 140 144 148 152 154 156 156 154 153 154 156 157 156 155 154 152 151 149 148 147 146 145 142 140 138 136 135 133 132 131 130 129 127 126 125 125 124 124 123 122 121 120 120 119 117 117 116 115 114 113 113 112 111
86 90 93 96 100 103 105 107 108 110 112 113 114 115 117 120 123 126 128 130 131 135 139 143 147 150 152 154 153 152 153 156 158 158 157 156 155 154 153 152 151 150 149 147 145 143 141 139 137 136 135 135 133 132 130 129 127 127 126 125 124 123 122 122 121 120 119 118 117 116 115 115 115 113
81 85 89 93 97 99 102 103 105 107 108 109 110 111 113 116 118 121 124 126 128 130 134 138 142 145 148 151 152 152 153 155 157 158 158 157 157 156 156 155 154 153 153 151 149 147 145 143 142 141 140 139 137 136 134 132 130 129 129 128 127 126 124 123 122 121 121 120 120 119 118 117 117 116
76 80 84 88 92 95 97 100 101 103 104 106 108 109 111 113 115 117 120 122 124 127 129 133 137 140 143 146 149 151 152 154 156 158 158 158 157 156 157 157 157 156 156 155 154 152 149 147 146 145 144 143 141 140 138 136 134 132 132 131 130 129 127 125 124 123 123 123 122 121 120 119 119 118
72 75 79 83 87 90 93 95 97 99 102 105 106 107 109 111 113 116 117 119 120 123 126 129 132 136 139 141 144 147 149 152 154 156 158 158 157 156 156 157 157 158 158 158 157 156 154 151 150 149 148 147 146 145 143 141 138 136 135 134 133 132 131 129 127 126 126 126 125 124 124 123 122 122
67 70 74 77 80 84 87 91 94 96 99 101 103 104 106 108 110 113 115 116 116 118 121 124 128 132 135 137 139 142 145 148 151 154 156 157 157 156 155 155 156 157 158 159 159 158 157 155 154 152 152 151 150 149 147 145 143 141 139 138 136 135 134 133 131 130 129 129 128 128 127 127 126 125
64 67 69 72 75 78 82 85 89 92 94 97 99 101 103 105 107 109 111 112 113 114 116 119 123 128 131 133 135 138 140 143 146 149 152 155 156 156 155 155 155 156 157 157 158 158 158 158 157 155 154 154 153 152 151 149 147 145 143 141 140 139 138 137 135 134 134 133 132 131 130 130 129 128
61 63 65 68 71 74 77 80 84 87 90 92 95 97 99 102 103 105 106 108 110 111 112 114 117 121 125 128 131 133 135 137 140 143 147 150 153 154 155 154 154 154 155 155 156 157 157 157 157 156 156 155 154 154 153 152 151 149 147 145 144 143 141 140 139 138 137 136 135 134 133 133 132 131
58 59 61 63 66 69 72 75 78 81 85 88 90 93 95 97 99 100 102 104 106 108 110 111 113 116 119 122 125 128 130 132 134 138 142 145 148 150 151 152 152 152 153 153 154 154 155 155 155 155 155 155 155 154 154 153 153 152 150 149 148 147 145 144 142 141 140 140 139 138 137 136 135 134
55 56 58 59 61 64 66 69 72 75 79 83 86 89 91 93 95 97 98 100 102 104 107 109 111 113 115 117 119 122 125 128 131 134 137 140 143 145 146 147 148 149 149 150 151 151 152 153 154 153 153 153 153 153 153 152 152 153 152 152 151 150 149 148 147 146 145 144 143 142 141 139 138 137
52 54 55 57 58 60 62 64 67 70 73 77 81 84 87 89 91 93 95 97 99 101 103 105 107 109 112 114 116 118 121 124 127 130 133 135 138 140 141 142 143 144 145 147 148 149 149 150 151 152 151 151 151 150 150 150 150 150 151 152 152 152 151 151 150 150 149 149 148 146 145 143 142 141
49 51 52 54 55 57 59 61 63 65 68 72 75 78 81 84 86 88 90 92 94 97 99 101 103 105 108 111 114 116 118 120 122 125 128 130 132 134 135 137 138 139 141 142 144 145 145 146 146 147 148 148 148 148 148 147 147 147 147 148 148 149 150 151 152 152 152 152 151 150 149 148 146 145
47 48 49 51 53 54 56 58 60 62 64 67 70 73 76 79 81 84 86 88 90 92 94 96 99 101 105 108 111 114 115 116 118 120 122 125 127 128 130 132 135 136 138 139 139 140 140 141 141 141 141 142 144 145 145 145 145 144 144 145 145 145 146 147 149 150 151 152 152 152 151 150 149 148
44 46 48 49 51 52 54 56 57 59 61 63 66 68 71 74 76 79 81 83 85 87 89 92 94 97 101 104 108 110 112 112 113 115 117 119 122 124 126 128 131 132 134 134 135 135 135 135 136 137 137 138 139 140 140 141 141 141 141 142 142 142 142 143 144 145 146 148 149 149 150 149 149 149
42 43 45 47 49 50 52 53 55 57 59 61 63 65 67 70 72 74 77 79 81 83 85 88 91 94 96 99 103 105 106 107 108 109 111 114 116 118 120 122 123 125 127 128 129 130 131 132 133 134 134 135 135 135 135 136 136 136 136 137 138 138 139 139 140 141 142 143 144 145 146 146 146 147
39 41 42 44 46 47 49 50 51 53 55 57 59 61 64 66 68 70 73 75 77 79 81 84 87 89 92 95 98 100 101 102 103 104 105 107 109 111 113 115 116 118 120 123 125 127 128 129 131 131 131 131 131 131 131 131 131 131 132 132 132 133 133 134 135 136 138 139 140 141 142 142 143 144
36 38 40 41 43 44 46 47 49 50 52 54 56 58 60 62 64 66 69 70 72 75 77 80 82 84 87 89 92 95 97 98 99 100 100 102 103 105 107 109 111 114 116 119 121 123 124 125 127 128 128 128 128 128 128 128 127 127 128 128 128 128 128 129 129 130 132 133 135 136 137 138 139 140
34 36 38 39 41 42 43 45 46 47 49 51 53 55 57 58 61 63 65 67 69 71 73 75 77 79 81 84 87 90 92 93 94 95 96 98 100 101 102 104 107 110 112 114 116 118 119 120 122 124 125 125 125 125 125 125 124 124 125 125 124 124 124 124 125 125 126 127 129 130 131 133 134 135
32 33 35 36 38 39 40 41 43 44 45 47 50 52 54 56 59 61 62 63 66 68 69 71 73 75 77 79 82 84 86 87 88 90 93 95 96 98 99 101 103 105 106 108 111 113 114 116 118 120 121 122 122 122 122 122 122 121 121 121 121 121 121 121 120 121 122 122 124 125 126 127 129 130
31 31 32 33 34 36 37 38 39 41 42 45 48 49 51 55 58 59 59 60 62 64 65 67 69 71 73 75 78 80 82 83 85 87 90 91 93 95 97 98 100 101 102 104 106 108 109 111 113 114 116 117 118 119 120 120 119 119 118 118 118 118 118 118 117 117 118 119 120 120 121 122 124 125
28 29 30 31 32 33 34 35 36 37 39 41 44 47 50 54 56 55 55 57 58 59 61 63 65 67 69 72 74 77 79 81 83 85 86 88 90 92 93 95 96 98 100 101 102 103 104 105 107 108 110 111 113 114 116 117 117 117 116 116 116 115 115 115 115 115 115 115 116 117 118 119 120 121
25 26 27 28 29 30 31 32 34 35 35 38 41 45 48 50 50 50 52 53 54 55 57 59 61 63 65 67 70 72 75 77 78 80 82 84 85 87 88 90 92 94 97 98 98 98 99 100 101 103 104 106 107 109 111 112 113 113 113 114 114 114 113 113 113 113 112 112 112 113 114 116 117 118
22 23 24 25 26 27 28 30 31 32 33 35 39 42 43 42 43 45 46 48 49 51 53 55 57 59 61 63 65 67 69 70 72 74 75 78 80 81 83 85 88 90 93 95 94 94 94 96 97 98 100 101 103 104 106 107 109 110 111 112 112 112 112 112 112 112 111 111 110 110 111 112 113 115
18 19 21 22 24 25 26 27 28 29 31 33 36 38 39 39 40 41 43 44 46 48 50 53 55 57 60 62 63 64 64 65 66 68 69 71 74 76 78 80 83 85 88 89 89 89 90 92 94 95 96 97 98 99 101 103 104 106 107 108 109 110 110 110 110 110 110 109 109 109 109 110 110 112
15 16 17 19 20 22 23 24 25 27 28 30 33 35 37 38 38 38 39 41 43 45 48 50 53 55 57 59 60 61 62 63 64 65 66 68 70 71 73 75 77 80 82 84 84 85 86 88 90 91 92 92 93 94 96 98 99 101 103 104 105 106 106 107 108 108 108 109 109 109 108 108 109 110
13 14 15 16 17 19 20 21 23 24 25 27 29 32 34 36 37 36 36 37 39 41 44 46 49 51 53 55 57 58 60 61 63 64 65 66 68 69 71 72 74 76 78 79 80 81 83 85 86 88 88 88 89 90 92 93 94 96 97 99 100 101 102 103 104 105 106 107 108 108 108 108 108 108
12 13 13 14 15 16 17 19 20 21 23 24 26 29 31 33 34 35 35 35 37 38 40 43 45 47 49 51 53 55 57 58 60 61 63 64 65 67 68 69 71 73 75 77 78 79 80 81 83 83 84 85 86 87 88 89 89 91 92 94 95 97 97 99 100 102 102 103 104 104 105 105 106 107
9 10 11 11 11 12 14 15 17 18 20 22 23 26 28 30 32 33 33 34 35 36 37 39 41 43 45 47 49 51 52 54 56 58 59 61 62 63 64 65 67 70 72 74 75 76 77 78 79 80 81 82 83 83 84 85 86 87 88 89 90 91 92 94 95 96 97 98 98 99 100 102 103 105
7 7 7 7 7 8 9 11 13 15 17 19 21 22 24 26 29 30 32 33 33 34 35 36 38 39 41 43 45 47 49 51 52 54 56 57 59 60 61 62 64 66 67 69 70 71 73 74 75 77 78 79 80 81 82 82 84 85 86 86 87 87 88 89 90 90 91 92 93 94 96 98 100 101
4 4 4 4 5 5 6 7 9 11 13 15 17 19 21 22 24 26 28 30 31 33 34 35 36 37 38 40 42 44 45 47 49 51 53 55 56 58 59 60 61 63 64 65 66 67 69 70 72 73 75 76 77 78 78 80 81 82 83 83 84 85 85 86 86 86 86 87 89 90 92 93 95 96
3 3 3 2 2 3 3 4 5 7 9 11 13 15 17 19 21 22 24 26 28 30 31 33 34 35 36 38 39 41 42 44 45 47 49 51 52 54 56 57 58 59 61 62 63 65 66 67 69 70 71 73 74 75 76 77 78 79 79 79 81 82 82 82 82 83 84 85 86 88 89 90 92 93
4 4 3 3 3 3 3 3 3 3 5 6 8 10 12 15 17 19 21 23 25 27 28 30 32 33 34 36 37 39 40 41 43 44 46 47 49 50 52 53 55 56 57 59 60 61 63 64 65 67 68 69 71 72 73 74 75 75 76 77 78 79 79 78 79 80 82 83 84 85 86 88 89 90
4 4 4 4 4 3 3 3 3 3 3 4 5 6 8 10 12 14 16 18 20 22 24 26 28 30 31 33 35 36 38 39 41 42 44 45 46 47 49 50 51 53 54 55 57 58 59 61 62 63 65 66 67 68 69 70 71 72 74 75 76 77 77 77 77 78 79 80 81 82 83 85 87 88
3 3 3 3 3 3 2 2 2 2 2 3 4 5 6 7 9 10 12 14 16 19 21 22 24 26 28 29 31 33 34 36 38 39 41 42 43 45 46 47 49 50 51 53 54 55 56 58 59 61 62 63 65 65 65 66 68 69 70 71 72 73 73 74 75 76 77 77 78 80 81 83 85 86
5 4 4 4 3 3 2 1 1 1 1 2 3 4 5 6 7 8 10 11 13 15 17 19 21 23 24 26 28 29 31 32 34 36 37 39 40 42 43 44 46 47 49 50 51 53 54 55 57 58 60 61 62 62 63 65 66 66 66 67 67 68 69 71 72 73 74 75 76 77 79 81 83 84
6 6 6 5 5 5 4 4 3 3 3 3 3 4 4 5 6 7 8 9 11 12 14 16 18 20 21 23 25 27 28 30 31 33 35 36 37 39 40 42 43 45 46 48 49 50 52 53 55 56 57 58 59 60 62 63 64 64 64 65 65 66 67 69 69 69 70 71 72 74 76 78 80 81
8 7 7 7 7 7 6 6 5 5 5 4 4 5 5 6 6 7 8 9 10 11 13 14 15 17 19 20 22 24 25 27 29 30 32 33 35 37 38 40 41 42 44 45 47 49 50 52 53 54 55 56 58 59 60 62 62 62 62 63 65 66 67 67 67 68 68 68 69 71 73 75 75 76
8 8 8 8 7 7 7 7 7 6 6 6 6 6 7 7 7 8 9 9 10 11 12 13 14 16 17 18 20 21 23 24 26 27 29 30 32 34 35 37 39 40 42 43 45 47 48 50 51 52 54 55 56 58 59 60 60 60 61 63 64 65 65 66 66 66 66 67 68 70 72 72 72 73
8 7 7 7 7 7 7 7 7 7 7 7 8 8 8 8 8 9 9 10 11 12 12 13 14 15 17 18 19 20 21 23 24 25 27 28 30 31 33 34 36 38 39 41 43 44 46 48 50 51 52 53 54 56 57 58 58 59 60 61 62 63 64 64 64 65 66 67 68 69 70 70 69 71
8 8 8 8 9 9 9 9 9 9 9 9 9 9 9 10 10 10 11 11 12 12 13 14 15 16 17 18 19 20 22 23 24 26 27 28 29 31 32 33 35 36 37 39 41 42 44 46 48 49 50 51 52 54 56 56 56 57 58 59 61 62 62 62 63 64 65 66 67 67 67 67 68 70
9 9 10 10 11 11 11 12 12 12 12 12 12 12 12 12 12 12 13 13 14 15 15 16 17 18 19 20 21 22 23 24 25 27 28 29 30 32 33 34 35 36 38 39 40 42 43 45 46 47 48 49 51 53 54 54 55 56 57 58 59 60 61 61 63 64 65 66 66 65 64 65 67 69
Wind_Direction
235 235 236 236 237 237 237 236 235 234 234 234 236 237 237 235 234 234 235 236 236 236 236 237 237 238 239 239 239 239 239 239 240 240 240 241 242 243 244 244 243 242 242 242 242 242 243 243 244 244 244 244 244 245 245 246 246 246 246 247 247 246 246 247 247 247 247 247 248 248 249 249 249 249
234 235 235 236 237 237 237 237 236 236 235 234 235 236 237 236 235 234 234 235 236 236 236 236 237 238 239 239 239 239 239 239 239 239 239 239 240 241 243 243 243 243 242 242 242 242 243 243 244 244 244 244 244 244 245 245 246 246 247 247 247 247 247 247 247 247 247 247 247 248 248 249 249 249
235 235 235 236 236 237 237 237 236 236 235 235 234 235 235 236 236 235 234 234 235 236 236 236 237 237 238 239 239 239 239 239 239 239 239 239 239 240 241 243 244 244 243 243 243 243 243 243 244 244 244 244 244 244 245 245 245 246 247 247 247 248 248 247 247 247 247 248 247 248 248 248 249 249
236 235 236 236 237 237 237 237 236 235 235 235 234 234 234 234 235 235 234 234 234 235 236 236 237 237 238 239 239 239 239 239 239 240 240 240 240 240 240 242 243 244 244 244 243 243 243 244 244 244 244 244 244 244 244 245 245 245 246 246 247 248 248 248 248 247 248 248 248 248 248 248 248 249
236 235 235 236 237 237 237 236 236 236 235 235 234 234 233 233 234 234 234 234 234 234 235 236 237 237 238 239 239 239 239 239 240 240 240 240 240 240 240 241 242 243 243 244 244 244 243 243 244 244 244 244 244 244 244 244 245 245 246 246 246 247 247 248 248 248 248 248 248 248 248 249 249 249
236 235 235 235 236 236 236 236 237 237 236 236 235 235 234 234 233 234 234 234 234 234 234 235 236 237 238 239 239 239 238 239 240 240 240 240 240 241 241 241 242 242 243 243 244 244 244 244 244 244 244 244 244 244 244 244 244 245 245 246 246 246 247 247 248 248 248 248 248 249 249 249 249 249
236 235 235 235 235 236 236 236 236 237 237 238 237 237 236 236 235 234 234 234 233 233 234 235 235 236 237 238 238 239 238 239 240 241 241 240 240 240 241 241 241 242 243 243 243 243 244 244 244 244 245 245 245 245 245 244 244 245 245 246 246 246 246 247 247 248 248 249 249 249 249 249 249 250
236 235 235 235 235 236 236 237 237 237 237 237 237 237 236 236 236 236 235 234 233 233 234 234 235 236 236 237 237 238 238 239 239 240 241 241 241 240 240 241 241 242 242 243 243 243 243 243 244 245 245 245 245 246 245 245 245 245 245 246 246 247 247 247 247 248 248 249 249 249 249 249 250 250
236 236 235 235 235 235 236 237 237 237 236 236 236 236 236 236 236 236 236 235 234 233 233 234 235 236 236 236 237 237 238 238 239 240 241 242 242 241 241 241 241 242 242 243 244 244 244 243 243 244 245 245 246 246 246 246 246 245 245 246 246 247 247 247 247 247 248 248 249 249 249 250 250 250
236 236 236 235 235 235 235 236 236 237 237 237 237 237 236 236 236 236 236 236 235 235 234 234 234 235 236 236 236 236 237 237 238 239 240 241 242 242 242 241 241 242 242 243 243 244 245 244 244 243 244 244 245 246 246 247 246 246 246 246 246 247 247 247 247 247 247 248 248 248 249 249 249 250
237 236 235 235 235 234 234 235 235 236 237 238 238 238 237 237 237 236 236 237 237 236 235 235 235 235 236 236 236 236 237 237 238 238 239 240 242 242 243 242 242 242 243 243 244 244 245 245 245 245 244 244 245 246 246 247 247 247 247 247 247 247 247 247 247 248 248 248 248 248 248 249 249 250
238 237 237 236 235 234 234 234 234 235 236 237 238 238 238 238 238 237 237 237 237 237 237 237 236 236 236 237 237 237 237 237 238 238 239 240 241 242 243 243 243 243 243 243 244 244 245 245 246 246 246 246 245 246 246 247 248 248 248 248 248 249 249 249 248 249 249 249 249 249 249 249 249 250
238 238 238 238 237 236 235 234 234 234 234 235 236 237 238 239 239 238 238 238 237 237 238 237 237 238 238 238 238 238 238 238 238 239 239 240 241 241 242 243 243 244 244 244 244 245 245 246 246 247 247 247 247 247 247 247 248 248 248 249 249 250 250 250 250 250 250 250 250 250 250 250 250 250
238 237 237 237 238 238 237 236 235 235 234 235 235 236 237 237 238 239 239 238 238 238 238 238 238 238 238 239 239 239 239 238 238 239 239 239 240 241 242 243 244 244 245 245 245 245 246 246 247 247 247 248 248 248 248 248 248 248 248 249 249 250 250 251 251 251 251 251 251 251 251 251 251 251
238 237 237 237 237 237 237 237 236 236 235 235 235 236 236 237 237 238 238 238 238 238 238 238 238 238 238 238 239 239 238 238 239 239 239 239 240 241 242 242 243 244 245 245 246 246 246 246 247 247 248 248 249 249 249 249 249 248 248 248 249 249 250 250 251 251 252 252 252 252 252 252 253 253
240 239 238 238 237 237 237 236 236 236 236 236 236 236 237 237 237 238 238 238 238 238 238 238 238 238 238 239 239 239 238 238 238 239 239 240 240 241 242 242 243 244 245 245 246 246 247 247 247 247 248 248 249 249 250 250 250 250 249 249 249 249 249 250 250 251 252 252 253 253 253 254 254 254
240 240 239 238 238 237 237 236 236 236 236 236 236 236 237 237 238 238 238 238 238 238 238 238 239 239 239 239 239 239 239 239 238 238 239 239 240 240 241 242 243 243 244 245 245 246 246 247 248 248 248 248 249 249 250 250 250 250 250 250 250 250 249 249 250 250 251 252 253 253 254 254 254 255
241 240 239 238 238 237 236 236 235 235 235 236 236 236 236 237 237 238 238 238 239 239 239 239 239 239 239 239 240 240 240 240 239 239 239 239 240 240 240 241 241 242 243 244 245 246 247 247 248 248 248 249 249 249 249 250 250 250 251 251 251 251 251 250 250 250 251 251 252 253 254 254 254 255
242 241 240 240 239 238 238 237 236 235 235 235 235 235 235 236 236 237 237 237 237 238 238 238 239 239 240 240 241 241 242 242 241 241 240 240 240 241 241 242 242 243 244 245 246 246 247 248 248 248 249 249 249 249 250 250 250 250 251 251 251 251 251 251 251 251 251 252 252 253 253 254 254 255
242 242 242 241 241 240 240 239 238 237 237 236 236 236 235 236 236 236 237 237 237 237 238 238 238 239 239 240 241 242 243 243 243 243 243 243 243 243 243 244 244 245 245 245 246 246 247 248 248 249 249 250 250 250 250 251 251 251 251 251 251 251 251 251 251 251 252 252 252 252 253 253 254 254
240 240 241 241 241 241 240 239 239 238 237 237 237 236 236 236 236 236 236 237 237 237 237 238 238 238 239 240 241 242 242 243 244 244 245 245 245 245 245 245 245 245 245 246 246 246 247 247 248 249 250 250 250 251 251 251 251 251 251 251 251 251 251 251 251 251 251 251 252 252 252 253 253 253
240 239 239 239 239 240 240 240 239 239 238 237 237 237 236 236 236 236 235 235 236 236 237 237 238 238 239 240 240 241 242 243 244 244 245 245 246 245 245 245 245 245 246 246 246 247 247 247 248 249 250 250 251 251 251 251 251 251 252 252 251 251 251 251 251 251 251 251 251 251 251 251 252 252
243 243 242 241 241 240 240 239 239 239 239 238 238 237 237 237 236 236 235 234 235 235 236 236 237 237 238 239 240 241 242 242 243 243 244 244 245 246 246 246 245 245 246 246 246 246 247 247 247 248 249 249 250 251 251 251 251 251 251 252 252 252 251 251 251 251 251 250 250 250 250 251 251 251
247 247 247 246 245 244 243 241 239 238 237 237 238 238 237 237 237 236 236 236 236 236 236 236 236 236 237 237 238 239 240 240 241 241 242 243 243 244 244 245 246 246 246 246 246 246 246 246 246 246 247 248 249 250 250 251 251 251 251 252 252 252 251 251 251 250 250 250 250 250 250 250 250 250
249 250 250 250 249 248 247 245 243 241 238 237 237 237 236 237 238 238 237 237 238 238 238 238 238 237 237 237 237 238 238 239 239 239 240 241 241 242 243 244 245 245 246 246 246 246 246 246 247 247 247 248 248 249 250 250 251 251 251 252 252 252 252 252 251 251 250 250 250 250 250 251 251 251
249 250 250 251 251 250 249 248 246 244 242 240 240 238 237 237 239 239 239 239 239 239 239 240 240 240 239 239 239 239 239 239 239 240 240 241 241 242 242 243 244 245 246 246 247 247 247 247 248 248 248 248 248 249 249 250 250 251 252 252 252 252 252 252 252 252 251 251 250 250 249 250 250 251
247 248 248 248 248 248 247 247 247 246 244 243 244 244 242 240 239 238 238 239 238 238 239 239 240 241 241 241 241 241 241 241 241 241 241 242 242 242 243 243 243 244 245 246 247 247 248 248 248 248 248 248 248 248 249 249 250 250 250 251 251 251 252 252 252 252 251 251 250 250 249 249 249 250
246 246 246 246 246 246 244 243 243 243 243 243 245 247 247 244 241 238 236 235 235 234 235 235 236 237 238 239 240 241 242 242 242 242 242 242 243 243 243 243 244 244 245 246 247 247 247 248 248 248 248 248 248 248 248 248 249 249 249 250 250 250 251 251 251 252 252 251 251 250 249 249 249 249
248 247 247 247 247 247 246 243 241 240 239 240 242 245 247 247 245 242 239 237 236 235 234 234 235 235 236 237 238 239 240 241 241 241 241 241 241 242 242 243 243 244 245 246 246 247 247 247 248 248 248 248 248 248 248 248 248 248 249 249 249 249 250 250 250 251 251 251 251 251 250 249 249 249
251 249 247 247 248 247 247 246 244 241 239 238 238 240 243 246 248 246 242 240 238 237 237 237 237 237 237 238 238 238 239 239 240 240 240 240 240 240 240 241 242 243 244 244 245 245 245 246 246 247 248 248 248 248 247 247 247 247 248 248 249 249 249 249 249 249 249 249 250 250 250 249 249 248
253 249 246 245 245 246 246 246 246 244 242 240 238 238 239 243 245 246 245 242 239 238 238 238 238 238 238 239 239 239 239 240 240 241 241 241 241 241 241 241 241 242 243 243 244 244 245 246 246 247 247 248 248 249 249 249 249 248 248 248 248 249 249 249 249 249 249 249 249 249 250 250 249 249
255 251 248 245 244 243 243 242 242 243 242 241 240 239 239 240 242 243 244 243 242 240 239 238 238 238 239 239 240 240 241 241 242 242 243 243 243 243 242 242 242 242 243 243 244 245 246 246 247 248 248 248 248 249 249 250 250 250 250 249 249 249 249 249 249 250 250 250 250 250 250 250 250 250
254 250 247 246 246 246 245 243 240 239 239 239 239 239 239 240 240 241 242 243 243 242 241 240 240 239 239 239 239 240 240 241 241 242 243 244 244 244 244 244 244 244 244 245 245 245 246 246 247 248 248 248 249 249 249 249 249 249 250 250 250 250 250 250 250 250 250 250 250 250 250 250 250 250
272 263 255 250 247 248 247 245 241 239 237 236 236 236 237 238 239 240 241 242 243 243 243 243 242 242 241 241 241 241 241 241 241 242 242 243 243 244 244 244 245 245 245 246 246 246 246 246 247 247 248 248 249 249 249 249 249 250 250 250 250 250 250 250 250 250 250 250 250 250 250 250 250 250
321 313 302 288 279 270 261 251 242 237 234 233 233 233 234 234 235 237 238 239 240 241 242 243 244 244 244 244 244 244 244 244 244 244 244 244 244 245 245 246 246 246 246 246 247 246 246 247 247 247 248 248 249 249 249 249 250 250 251 251 251 251 251 251 251 251 251 251 250 250 250 250 249 249
1 358 352 347 342 333 320 306 283 263 251 242 237 234 233 233 232 233 234 235 236 237 239 240 241 242 243 244 245 245 245 246 246 246 246 246 246 246 247 247 247 248 248 248 248 249 249 249 249 248 248 249 249 249 249 249 250 250 251 251 251 251 251 251 251 251 251 251 251 250 250 250 250 250
26 23 16 11 8 2 354 345 333 315 298 279 261 251 242 237 235 234 234 234 235 237 237 238 239 241 242 242 244 244 245 246 246 247 247 247 247 247 247 248 248 248 248 249 249 249 250 250 251 251 251 251 251 250 250 250 250 249 249 249 250 250 251 251 250 250 250 251 251 251 251 251 251 251
30 34 33 32 28 24 16 8 353 331 308 287 270 259 250 243 239 237 235 235 235 236 237 238 239 240 241 242 243 244 245 246 246 247 248 248 249 249 249 249 249 249 249 249 249 249 249 250 250 251 251 252 252 253 253 252 251 251 250 250 250 250 250 250 250 250 250 250 250 251 251 251 251 251
9 9 10 12 14 13 10 1 341 297 264 255 249 243 241 239 237 235 235 235 235 235 236 237 238 239 240 241 242 243 244 245 246 246 247 248 249 249 249 250 250 250 250 250 250 250 250 250 250 250 251 252 252 253 253 253 253 253 253 252 252 251 251 250 250 249 249 249 249 249 250 250 250 251
0 359 357 354 352 349 345 335 322 308 287 270 258 250 243 240 237 236 235 235 236 237 237 238 239 240 240 241 242 243 244 244 245 246 247 247 248 248 249 249 250 250 251 251 251 251 251 251 251 251 252 252 252 253 253 253 254 254 254 254 254 253 252 252 251 251 250 250 250 249 249 249 249 250
356 355 352 349 344 339 334 328 320 311 302 291 281 271 263 254 248 244 241 239 238 238 238 239 240 241 241 242 243 243 244 245 245 246 247 247 248 248 249 249 249 250 250 251 251 252 252 252 253 253 253 253 253 253 253 253 254 254 255 255 255 254 254 254 253 253 252 251 251 251 250 250 250 251
349 347 343 339 332 326 321 315 309 303 297 292 286 279 273 267 261 256 252 250 248 247 246 245 245 245 245 245 245 246 246 246 247 247 248 248 249 249 249 250 250 250 250 251 251 252 252 253 253 253 253 253 253 253 253 254 254 254 254 254 254 254 254 255 254 254 254 253 252 252 252 252 252 252
337 334 331 327 322 318 312 307 302 299 295 293 290 287 283 280 276 273 270 267 265 263 261 260 258 257 256 255 254 253 253 253 253 253 253 252 252 253 253 252 253 253 253 253 253 253 253 254 254 254 254 254 254 254 254 254 254 254 254 254 255 255 255 255 255 255 254 254 253 253 253 253 253 253
335 334 332 329 326 323 319 315 311 308 305 302 299 297 294 292 290 288 285 282 279 276 274 272 270 268 267 265 264 263 262 262 262 261 260 260 259 259 258 258 257 257 257 257 256 256 256 256 256 256 256 256 256 256 256 256 255 255 255 255 255 256 256 256 256 255 255 254 254 253 253 254 254 254
340 338 336 334 332 329 326 323 320 317 314 311 308 305 302 299 297 295 292 290 288 285 283 281 279 277 275 273 272 270 269 268 267 267 266 265 265 264 263 262 262 261 261 260 259 259 259 258 259 259 259 258 258 258 258 258 258 257 256 256 256 256 257 257 256 256 256 256 255 255 255 255 254 254